Roseburg, OR

6:03 AM PDT on July 26, 2017 (GMT -0700)
Roseburg Regional

Weather History for KRBG - February, 2014

Change the Weather History Date:

Saturday, February 15, 2014

  Actual Average Record
Temperature  
Mean Temperature 53 °F 45 °F  
Max Temperature 63 °F 54 °F 70 °F (1977)
Min Temperature 42 °F 37 °F 20 °F (1956)
Degree Days  
Heating Degree Days 12 20  
Month to date heating degree days 272 306  
Since 1 July heating degree days 2723 2625  
Cooling Degree Days 0 0  
Month to date cooling degree days 0 0  
Year to date cooling degree days 0 0  
Growing Degree Days 2 (Base 50)    
Moisture  
Dew Point 45 °F    
Average Humidity 71    
Maximum Humidity 93    
Minimum Humidity 48    
Precipitation  
Precipitation 0.36 in 0.13 in 2.18 in (1958)
Month to date precipitation 4.27 2.32  
Year to date precipitation 6.03 7.41  
Sea Level Pressure  
Sea Level Pressure 29.74 in    
Wind  
Wind Speed 4 mph (WSW)    
Max Wind Speed 18 mph    
Max Gust Speed 33 mph    
Visibility 7 miles    
Events Rain    
T = Trace of Precipitation, MM = Missing Value Source: NWS Daily Summary

Daily Weather History Graph

Daily Weather History Graph

Search for Another Location

Airport or City:

Trip Planner

Search our weather history database for the weather conditions in past years. The results will help you decide how hot, cold, wet, or windy it might be!

Date:

Astronomy

Feb. 15, 2014 Rise Set
Actual Time 7:11 AM PST 5:44 PM PST
Civil Twilight 6:41 AM PST 6:13 PM PST
Nautical Twilight 6:08 AM PST 6:47 PM PST
Astronomical Twilight 5:35 AM PST 7:20 PM PST
Moon 6:53 PM PST (2/15) 7:10 AM PST (2/15)
Length of Visible Light 11h 31m
Length of Day
10h 33m
Full, 99% of the Moon is Illuminated
Feb 15
Full
Feb 22
Last Quarter
Mar 1
New
Mar 8
First Quarter
Mar 16
Full

Hourly Weather History & Observations

Time (PST) Temp. Windchill Dew Point Humidity Pressure Visibility Wind Dir Wind Speed Gust Speed Precip Events Conditions
12:53 AM 48.9 °F - 46.0 °F 90% 29.89 in 5.0 mi Calm Calm - 0.01 in Rain Light Rain
1:24 AM 48.0 °F - 46.0 °F 93% 29.87 in 10.0 mi Calm Calm - 0.01 in Rain Light Rain
1:53 AM 48.0 °F - 45.0 °F 89% 29.87 in 10.0 mi North 4.6 mph - 0.02 in Rain Light Rain
2:20 AM 48.0 °F - 45.0 °F 89% 29.84 in 9.0 mi North 3.5 mph - 0.01 in Rain Light Rain
2:53 AM 48.0 °F - 44.1 °F 86% 29.83 in 10.0 mi Calm Calm - 0.01 in Rain Light Rain
3:53 AM 48.0 °F - 45.0 °F 89% 29.81 in 10.0 mi Calm Calm - 0.01 in Rain Light Rain
4:53 AM 48.0 °F - 45.0 °F 89% 29.80 in 5.0 mi Calm Calm - 0.04 in Rain Light Rain
5:49 AM 48.2 °F - 44.6 °F 87% 29.76 in 7.0 mi Calm Calm - 0.04 in Rain Light Rain
5:53 AM 48.0 °F - 45.0 °F 89% 29.77 in 6.0 mi Calm Calm - 0.04 in Rain Light Rain
6:10 AM 48.0 °F - 45.0 °F 89% 29.75 in 5.0 mi Calm Calm - 0.02 in Rain Light Rain
6:21 AM 48.0 °F - 45.0 °F 89% 29.75 in 6.0 mi North 3.5 mph - 0.02 in Rain Light Rain
6:53 AM 48.0 °F - 45.0 °F 89% 29.73 in 7.0 mi North 3.5 mph - 0.04 in Rain Light Rain
7:53 AM 48.0 °F - 45.0 °F 89% 29.70 in 6.0 mi NNW 3.5 mph - 0.01 in   Overcast
8:05 AM 48.0 °F - 45.0 °F 89% 29.69 in 8.0 mi Calm Calm - N/A   Overcast
8:53 AM 48.0 °F - 46.0 °F 93% 29.68 in 8.0 mi Calm Calm - N/A   Overcast
9:22 AM 48.9 °F - 46.0 °F 90% 29.65 in 8.0 mi Calm Calm - N/A   Overcast
9:53 AM 48.9 °F - 46.0 °F 90% 29.64 in 8.0 mi Calm Calm - N/A   Overcast
10:53 AM 51.1 °F - 46.9 °F 86% 29.60 in 9.0 mi Calm Calm - N/A   Scattered Clouds
11:53 AM 53.1 °F - 48.9 °F 86% 29.58 in 9.0 mi Calm Calm - N/A   Mostly Cloudy
12:53 PM 59.0 °F - 50.0 °F 72% 29.56 in 10.0 mi Variable 6.9 mph - N/A   Overcast
1:53 PM 62.1 °F - 43.0 °F 50% 29.55 in 10.0 mi South 15.0 mph 33.4 mph N/A   Overcast
3:53 PM 55.9 °F - 48.9 °F 77% 29.56 in 5.0 mi SSW 6.9 mph - N/A Rain Light Rain
4:16 PM 55.0 °F - 48.9 °F 80% 29.57 in 2.5 mi South 6.9 mph - 0.05 in Rain Rain
4:53 PM 54.0 °F - 50.0 °F 86% 29.62 in 1.5 mi WSW 10.4 mph 24.2 mph 0.16 in Rain Rain
5:06 PM 54.0 °F - 48.0 °F 80% 29.62 in 3.0 mi WSW 12.7 mph 21.9 mph 0.03 in Rain Light Rain
5:53 PM 52.0 °F - 45.0 °F 77% 29.68 in 10.0 mi WSW 5.8 mph - 0.04 in Rain Light Rain
6:53 PM 50.0 °F - 43.0 °F 77% 29.75 in 10.0 mi SSW 8.1 mph - 0.02 in Rain Light Rain
7:45 PM 48.0 °F - 41.0 °F 77% 29.80 in 2.0 mi WSW 5.8 mph - 0.04 in Rain Rain
7:53 PM 46.9 °F - 42.1 °F 83% 29.81 in 5.0 mi SSW 4.6 mph - 0.04 in Rain Light Rain
8:53 PM 45.0 °F 42.6 °F 39.9 °F 82% 29.85 in 10.0 mi SSE 4.6 mph - 0.01 in   Partly Cloudy
9:53 PM 43.0 °F - 39.9 °F 89% 29.89 in 10.0 mi Calm Calm - N/A   Scattered Clouds
10:53 PM 42.1 °F 40.2 °F 39.0 °F 89% 29.91 in 10.0 mi NNW 3.5 mph - N/A   Clear
11:53 PM 44.1 °F 37.1 °F 37.9 °F 79% 29.96 in 3.0 mi WSW 15.0 mph 24.2 mph 0.03 in Rain Rain